Charlotte, NC

9:17 PM EDT on June 18, 2018 (GMT -0400)
Charlotte-Douglas International

Weather History for KCLT - June, 2018

Change the Weather History Date:

Wednesday, June 13, 2018

  Actual Average Record
Temperature  
Mean Temperature 77 °F 75 °F  
Max Temperature 86 °F 86 °F 97 °F (1958)
Min Temperature 67 °F 64 °F 49 °F (1903)
Degree Days  
Heating Degree Days 0 0  
Month to date heating degree days 0 0  
Since 1 June heating degree days 0 0  
Since 1 July heating degree days 2975 3385  
Cooling Degree Days 12 10  
Month to date cooling degree days 148 112  
Year to date cooling degree days 482 275  
Since 1 June cooling degree days 148 112  
Growing Degree Days 26 (Base 50)    
Moisture  
Dew Point 68 °F    
Average Humidity 81    
Maximum Humidity 100    
Minimum Humidity 61    
Precipitation  
Precipitation T in 0.13 in 3.77 in (1949)
Month to date precipitation 0.40 1.70  
Year to date precipitation 18.64 18.66  
Snow  
Snow 0.00 in 0.00 in 0.00 in ()
Month to date snowfall 0.0 0.0  
Since 1 June snowfall 0.0 0.0  
Since 1 July snowfall 4.2 4.3  
Snow Depth 0.00 in    
Sea Level Pressure  
Sea Level Pressure 30.05 in    
Wind  
Wind Speed 5 mph (WSW)    
Max Wind Speed 12 mph    
Max Gust Speed 17 mph    
Visibility 8 miles    
Events Rain    
T = Trace of Precipitation, MM = Missing Value Source: NWS Daily Summary

Daily Weather History Graph

Daily Weather History Graph

Search for Another Location

Airport or City:

Astronomy

Jun. 13, 2018 Rise Set
Actual Time 6:08 AM EDT 8:39 PM EDT
Civil Twilight 5:38 AM EDT 9:08 PM EDT
Nautical Twilight 5:02 AM EDT 9:45 PM EDT
Astronomical Twilight 4:21 AM EDT 10:26 PM EDT
Moon 6:06 AM EDT (6/13) 8:35 PM EDT (6/13)
Length of Visible Light 15h 30m
Length of Day
14h 30m
Waning Crescent, 0% of the Moon is Illuminated
Jun 13
Waning Crescent
Jun 13
New
Jun 20
First Quarter
Jun 28
Full
Jul 6
Last Quarter

Hourly Weather History & Observations

Time (EDT) Temp. Heat Index Dew Point Humidity Pressure Visibility Wind Dir Wind Speed Gust Speed Precip Events Conditions
12:52 AM 68.0 °F - 66.0 °F 93% 30.11 in 6.0 mi NW 3.5 mph - N/A   Overcast
1:17 AM 68.0 °F - 66.9 °F 96% 30.13 in 3.0 mi NNW 4.6 mph - 0.00 in Rain Light Rain
1:52 AM 66.9 °F - 66.9 °F 100% 30.10 in 4.0 mi NW 4.6 mph - 0.00 in   Overcast
2:52 AM 66.9 °F - 66.9 °F 100% 30.08 in 5.0 mi Calm Calm - N/A   Overcast
3:52 AM 66.9 °F - 66.9 °F 100% 30.07 in 5.0 mi NNW 4.6 mph - N/A   Overcast
4:52 AM 68.0 °F - 66.0 °F 93% 30.07 in 6.0 mi Calm Calm - N/A   Overcast
5:52 AM 68.0 °F - 66.9 °F 96% 30.08 in 6.0 mi Calm Calm - N/A   Overcast
6:52 AM 69.1 °F - 66.0 °F 90% 30.08 in 7.0 mi SSW 3.5 mph - N/A   Mostly Cloudy
7:25 AM 69.1 °F - 66.9 °F 93% 30.11 in 8.0 mi South 3.5 mph - N/A   Scattered Clouds
7:52 AM 70.0 °F - 66.9 °F 90% 30.09 in 8.0 mi South 4.6 mph - N/A   Partly Cloudy
8:42 AM 73.0 °F - 66.0 °F 79% 30.12 in 10.0 mi West 4.6 mph - N/A   Mostly Cloudy
8:52 AM 73.0 °F - 66.0 °F 79% 30.09 in 10.0 mi SSW 4.6 mph - N/A   Mostly Cloudy
9:52 AM 75.9 °F - 66.9 °F 74% 30.09 in 10.0 mi West 4.6 mph - N/A   Mostly Cloudy
10:52 AM 75.9 °F - 66.9 °F 74% 30.08 in 10.0 mi West 5.8 mph - N/A   Mostly Cloudy
11:52 AM 77.0 °F - 68.0 °F 74% 30.09 in 10.0 mi SW 9.2 mph - N/A   Mostly Cloudy
12:52 PM 79.0 °F - 68.0 °F 69% 30.07 in 10.0 mi SW 9.2 mph - N/A   Mostly Cloudy
1:52 PM 81.0 °F 84.1 °F 69.1 °F 67% 30.05 in 10.0 mi SW 10.4 mph - N/A   Mostly Cloudy
2:52 PM 82.9 °F 86.5 °F 69.1 °F 63% 30.03 in 10.0 mi Calm Calm - N/A   Mostly Cloudy
3:36 PM 84.9 °F 89.4 °F 70.0 °F 61% 30.03 in 10.0 mi Variable 5.8 mph - N/A   Scattered Clouds
3:52 PM 84.9 °F 88.8 °F 69.1 °F 59% 30.00 in 10.0 mi SW 8.1 mph - N/A   Scattered Clouds
4:52 PM 84.9 °F 89.4 °F 70.0 °F 61% 29.99 in 10.0 mi SW 8.1 mph - N/A   Scattered Clouds
5:52 PM 84.9 °F 88.8 °F 69.1 °F 59% 29.97 in 10.0 mi SW 10.4 mph - N/A   Scattered Clouds
6:52 PM 84.0 °F 88.4 °F 70.0 °F 63% 29.97 in 10.0 mi SW 5.8 mph - N/A   Mostly Cloudy
7:52 PM 82.0 °F 85.9 °F 70.0 °F 67% 29.98 in 10.0 mi SW 5.8 mph - N/A   Mostly Cloudy
8:52 PM 80.1 °F 83.6 °F 71.1 °F 74% 29.99 in 10.0 mi WSW 4.6 mph - N/A   Mostly Cloudy
9:52 PM 79.0 °F - 72.0 °F 79% 29.99 in 10.0 mi SW 3.5 mph - N/A   Mostly Cloudy
10:52 PM 77.0 °F - 73.0 °F 88% 30.00 in 10.0 mi West 5.8 mph - 0.00 in   Mostly Cloudy
11:52 PM 75.9 °F - 73.0 °F 91% 30.00 in 10.0 mi WSW 3.5 mph - N/A   Mostly Cloudy